Content
SEND FEEDBACK

United States of America Flag

TOKLAT, ALASKA


Home > North America > United States > Alaska
Elevation: 360 feet     Latitude: 64 33N     Longitude: 149 05W

WEATHER
 
SELECT A DAY
Number of Records: 200,486;   Date Range: 1/1/95 - 3/22/16
 
SHARE

PRINT THIS DATA

[ ← Previous Day ]
WEATHER ALMANAC - JANUARY 2, 2013
[ Next Day → ]
[ °C ]   °F
Weather ElementAverageHighLow
Temperature7.7 °F25 °F (11:53 pm)-2.9 °F (7:53 pm)
Dewpoint2.5 °F15.1 °F (11:53 pm)-8 °F (8:53 pm)
Humidity79.4 %88 % (11:53 am)65 % (10:53 pm)
Barometer29.41 in29.52 in (11:53 pm)29.22 in (1:53 am)
Wind Speed2.3 mph11.5 mph (10:53 pm)
Weather ElementAverage
Visibility10 mi
Wind DirectionNE (47.3 °)

Weather ElementTotal
Precipitation---
Heating Degree Days54 (Base 65)
Averaged from 22 records on January 2, 2013
WEATHER CONDITIONS BREAKOUT
WIND DIRECTION BREAKOUT
WEATHER BY HOUR - JANUARY 2, 2013
[ °C ]   °F
Local TimeTemperatureDewpointHumidityBarometerVisibilityWind DirectionWind SpeedGust SpeedPrecipitationEventsConditions
1:53 AM15.1 °F8.1 °F74 %29.22 in10.0 miVariable4.6 mphClear
3:53 AM12.0 °F6.1 °F77 %29.27 in10.0 miWest (260°)4.6 mphClear
4:53 AM10.9 °F5.0 °F77 %29.29 in10.0 miWest (280°)3.5 mphClear
5:53 AM10.9 °F5.0 °F77 %29.31 in10.0 miWest (260°)3.5 mphClear
6:53 AM9.0 °F5.0 °F84 %29.33 in10.0 miCalmClear
7:53 AM5.0 °F1.9 °F87 %29.34 in10.0 miCalmClear
8:53 AM5.0 °F1.0 °F84 %29.36 in10.0 miCalmClear
9:53 AM3.0 °F0.0 °F87 %29.37 in10.0 miCalmClear
10:53 AM3.0 °F-0.9 °F84 %29.40 in10.0 miCalmClear
11:53 AM3.9 °F1.0 °F88 %29.40 inCalm
12:53 PM6.1 °F1.9 °F83 %29.42 inCalmClear
1:53 PM8.1 °F3.0 °F80 %29.44 in10.0 miCalmClear
2:53 PM7.0 °F3.0 °F84 %29.45 in10.0 miVariable3.5 mphClear
3:53 PM6.1 °F1.0 °F80 %29.46 in10.0 miCalmClear
4:53 PM3.0 °F-2.0 °F80 %29.48 in10.0 miCalmClear
5:53 PM0.0 °F-5.1 °F79 %29.49 in10.0 miCalmClear
6:53 PM-0.9 °F-6.0 °F79 %29.50 in10.0 miCalmClear
7:53 PM-2.9 °F-7.1 °F82 %29.50 in10.0 miCalmClear
8:53 PM-2.9 °F-8.0 °F79 %29.51 in10.0 miCalmClear
9:53 PM19.9 °F12.0 °F71 %29.51 in10.0 miEast (80°)9.2 mphClear
10:53 PM24.1 °F14.0 °F65 %29.51 in10.0 miENE (70°)11.5 mphClear
11:53 PM25.0 °F15.1 °F66 %29.52 in10.0 miEast (90°)10.4 mphClear
Hourly data recorded from PANN, located miles away from Toklat, Alaska




STORIES FROM OUR PARTNERS